Spokane, WA
on Thursday, January 17, 2013

Thursday
Previous Day Next Day
Daily Summary
 ActualAverageRecord
Temperature
Mean Temperature °F 30°F  
Max Temperature 25°F 35°F 51°F (1919)
Min Temperature 12°F 25°F -18°F (1950)
Degree Days
Heating Degree Days 46 35  
Month to date heating degree days 706 619  
Since 1 July heating degree days 3131 3453  
Cooling Degree Days 0 0  
Month to date cooling degree days 0 0  
Year to date cooling degree days 0 0  
Moisture
Dew Point 17°F   
Average Humidity 90    
Maximum Humidity 96    
Minimum Humidity 84    
Precipitation
Precipitation T in 0.05 in 0.54 in (1958)
Month to date precipitation 1.05 1.06  
Year to date precipitation 1.05 1.06  
Snow
Snow T in 0.30 in 3.40 in (1953)
Month to date snowfall 11.8 7.4  
Since 1 July snowfall 35.8 29.5  
Snow Depth 2.00 in   
Wind
Wind Speed 2 mph   
Max Wind Speed 8 mph   
Max Gust Speed 9 mph   
Visibility 1 miles   
Events Fog   

Key: T is trace of precipitation, MM is missing value
Source: NWS Daily Summary
Time(PST)TemperatureDew PointHumidity Pressure Visibility Wind DirectionWind SpeedGust SpeedPrecipitationEvents Conditions
12:25 AM 12.2°F 10.4°F 92% 30.48 in 0.1 miles WSW 4.6 mph - N/A Fog Light Freezing Fog
12:53 AM 12.9°F 9.0°F 84% 30.59 in 0.1 miles West 3.5 mph - N/A Fog Light Freezing Fog
1:25 AM 15.8°F 12.2°F 86% 30.49 in 0.1 miles WSW 4.6 mph - N/A Fog Light Freezing Fog
1:53 AM 15.1°F 12.0°F 88% 30.59 in 0.2 miles WSW 4.6 mph - N/A Fog Light Freezing Fog
2:53 AM 17.1°F 14.0°F 88% 30.59 in 0.1 miles Calm Calm - N/A Fog Light Freezing Fog
3:53 AM 17.6°F 14.0°F 86% 30.48 in 0.1 miles Calm Calm - N/A Fog Light Freezing Fog
4:53 AM 19.0°F 15.1°F 85% 30.59 in 0.1 miles Calm Calm - N/A Fog Light Freezing Fog
5:53 AM 19.9°F 16.0°F 85% 30.58 in 0.1 miles Calm Calm - N/A Fog Light Freezing Fog
6:07 AM 19.4°F 15.8°F 86% 30.47 in 0.2 miles Calm Calm - N/A Fog Light Freezing Fog
6:53 AM 19.9°F 16.0°F 85% 30.59 in 0.2 miles Calm Calm - N/A Fog Light Freezing Fog
7:53 AM 19.9°F 16.0°F 85% 30.61 in 0.1 miles Calm Calm - N/A Fog Light Freezing Fog
8:10 AM 19.4°F 15.8°F 86% 30.50 in 0.1 miles North 4.6 mph - N/A Fog Light Freezing Fog
8:53 AM 19.9°F 16.0°F 85% 30.62 in 0.1 miles Calm Calm - 0.00 in Fog Light Freezing Fog
9:53 AM 21.0°F 17.1°F 85% 30.61 in 0.2 miles Calm Calm - N/A Fog Light Freezing Fog
10:53 AM 21.9°F 19.0°F 89% 30.61 in 0.2 miles Calm Calm - N/A Fog Light Freezing Fog
11:53 AM 23.0°F 19.9°F 88% 30.58 in 0.2 miles North 3.5 mph - N/A Fog Light Freezing Fog
12:53 PM 24.1°F 21.0°F 88% 30.54 in 0.2 miles Calm Calm - N/A   Overcast
1:35 PM 24.8°F 21.2°F 86% 30.42 in 1.0 miles North 4.6 mph - N/A   Overcast
1:53 PM 23.0°F 21.0°F 92% 30.52 in 0.5 miles NE 3.5 mph - N/A   Overcast
2:15 PM 24.8°F 19.4°F 80% 30.41 in 0.5 miles ENE 3.5 mph - N/A   Overcast
2:27 PM 23.0°F 21.2°F 93% 30.40 in 0.5 miles ENE 3.5 mph - N/A   Overcast
2:53 PM 23.0°F 21.0°F 92% 30.51 in 0.5 miles East 3.5 mph - N/A   Overcast
3:53 PM 21.9°F 19.0°F 89% 30.50 in 0.2 miles Calm Calm - N/A   Overcast
4:28 PM 21.2°F 19.4°F 93% 30.37 in 1.5 miles SSE 3.5 mph - N/A   Overcast
4:53 PM 21.9°F 19.0°F 89% 30.49 in 1.5 miles Calm Calm - N/A   Overcast
4:57 PM 21.2°F 19.4°F 93% 30.39 in 3.0 miles Calm Calm - N/A   Mostly Cloudy
5:20 PM 21.2°F 19.4°F 93% 30.38 in 3.0 miles Calm Calm - N/A   Scattered Clouds
5:53 PM 21.0°F 19.0°F 92% 30.48 in 4.0 miles Calm Calm - N/A   Overcast
6:20 PM 21.2°F 17.6°F 86% 30.37 in 0.5 miles West 3.5 mph - N/A Fog Light Freezing Fog
6:53 PM 21.0°F 18.0°F 88% 30.46 in 0.5 miles West 4.6 mph - N/A Fog Light Freezing Fog
7:01 PM 19.4°F 17.6°F 93% 30.36 in 0.2 miles Calm Calm - N/A Fog Light Freezing Fog
7:39 PM 19.4°F 17.6°F 93% 30.35 in 3.0 miles Calm Calm - N/A   Mostly Cloudy
7:53 PM 19.0°F 16.0°F 88% 30.45 in 3.0 miles WSW 4.6 mph - N/A   Mostly Cloudy
8:53 PM 18.0°F 15.1°F 88% 30.45 in 7.0 miles Calm Calm - N/A   Overcast
9:40 PM 17.6°F 15.8°F 93% 30.34 in 5.0 miles Calm Calm - N/A   Overcast
9:53 PM 18.0°F 16.0°F 92% 30.44 in 5.0 miles Calm Calm - N/A   Overcast
10:53 PM 18.0°F 15.1°F 88% 30.43 in 6.0 miles South 3.5 mph - N/A   Overcast
11:53 PM 17.1°F 14.0°F 88% 30.43 in 6.0 miles SSW 4.6 mph - N/A   Overcast
Moon Phase
Jan. 17 Jan. 18 Jan. 26 Feb. 03 Feb. 10
Sunrise:07:31 AM (PST) Moon Rise:10:09 AM (PST)1/17
Sunset:04:29 PM (PST) Moon Set:11:59 PM (PST)1/17

Copyright © 2014 The Weather Underground, Inc.